This demonstration page uses our WeatherBlox Daily Observations layout. Learn more.

Left ArrowRight Arrow

Hourly Observations for December 6, 2016

Temp ( °F °C ) Dew Point ( °F °C ) Humidity (%) Winds ( mph kmh ) Pressure ( in mb ) Visibility ( mi km ) Precip ( " mm )
12:19 am 00:19 Clear 32 undefined 30 -1 93 93 E 9 15 29.97 1015 10 16 N/A
12:38 am 00:38 Clear 34 1 30 -1 87 87 E 8 13 29.94 1014 10 16 N/A
12:59 am 00:59 Clear 34 1 32 undefined 93 93 E 9 15 29.94 1014 10 16 N/A
1:19 am 01:19 Clear 34 1 32 undefined 93 93 E 7 11 29.91 1013 10 16 N/A
1:38 am 01:38 Clear 34 1 32 undefined 93 93 E 12 19 29.91 1013 10 16 N/A
1:59 am 01:59 Clear 34 1 32 undefined 93 93 E 9 15 29.88 1012 10 16 N/A
2:19 am 02:19 Clear 34 1 32 undefined 93 93 E 8 13 29.88 1012 10 16 N/A
2:38 am 02:38 Clear 34 1 32 undefined 93 93 ENE 6 9 29.88 1012 10 16 N/A
2:59 am 02:59 Clear 34 1 32 undefined 93 93 E 6 9 29.91 1013 10 16 N/A
3:19 am 03:19 Partly Cloudy 34 1 32 undefined 93 93 NNE 6 9 29.88 1012 10 16 N/A
3:38 am 03:38 Mostly Cloudy 34 1 32 undefined 93 93 NE 5 7 29.88 1012 10 16 N/A
3:59 am 03:59 Partly Cloudy 34 1 32 undefined 93 93 ENE 5 7 29.83 1010 10 16 N/A
4:19 am 04:19 Mostly Cloudy 34 1 32 undefined 93 93 NNE 7 11 29.83 1010 7 11 N/A
4:38 am 04:38 Cloudy 34 1 32 undefined 93 93 NE 6 9 29.83 1010 7 11 N/A
4:59 am 04:59 Cloudy 34 1 32 undefined 93 93 ENE 9 15 29.80 1009 10 16 N/A
5:19 am 05:19 Cloudy 36 2 32 undefined 87 87 E 10 17 29.80 1009 10 16 N/A
5:38 am 05:38 Cloudy 36 2 32 undefined 87 87 E 12 19 29.77 1008 10 16 N/A
5:59 am 05:59 Cloudy 36 2 32 undefined 87 87 E 9 15 29.77 1008 10 16 N/A
6:19 am 06:19 Cloudy 36 2 32 undefined 87 87 E 9 15 29.77 1008 10 16 N/A
6:38 am 06:38 Cloudy 36 2 32 undefined 87 87 E 7 11 29.74 1007 10 16 N/A
6:59 am 06:59 Cloudy 36 2 32 undefined 87 87 E 7 11 29.74 1007 10 16 N/A
7:18 am 07:18 Cloudy 36 2 32 undefined 87 87 E 6 9 29.77 1008 10 16 N/A
7:39 am 07:39 Cloudy 36 2 34 1 93 93 E 6 9 29.74 1007 10 16 N/A
7:59 am 07:59 Cloudy 36 2 34 1 93 93 E 6 9 29.74 1007 7 11 N/A
8:18 am 08:18 Cloudy 36 2 34 1 93 93 E 6 9 29.71 1006 7 11 N/A
8:39 am 08:39 Cloudy 36 2 34 1 93 93 ENE 5 7 29.71 1006 7 11 N/A
8:59 am 08:59 Cloudy 36 2 36 2 100 100 NNW 5 7 29.74 1007 7 11 N/A
9:18 am 09:18 Cloudy 36 2 34 1 93 93 NNW 6 9 29.74 1007 5 8 N/A
9:39 am 09:39 Cloudy 36 2 36 2 100 100 N 3 6 29.74 1007 4 6 N/A
9:58 am 09:58 Cloudy 36 2 36 2 100 100 N 8 13 29.74 1007 4 6 N/A
10:24 am 10:24 Cloudy 36 2 34 1 93 93 N 6 9 29.74 1007 3 5 N/A
10:39 am 10:39 Cloudy 36 2 34 1 93 93 NNE 7 11 29.74 1007 2 3 N/A
10:58 am 10:58 Cloudy 36 2 34 1 93 93 NE 6 9 29.74 1007 3 4 N/A
11:19 am 11:19 Cloudy 36 2 34 1 93 93 NE 6 9 29.74 1007 3 5 N/A
11:39 am 11:39 Cloudy 36 2 34 1 93 93 NE 5 7 29.71 1006 4 6 N/A
11:58 am 11:58 Cloudy 37 3 36 2 93 93 NE 3 6 29.71 1006 4 6 N/A
12:19 pm 12:19 Cloudy 37 3 36 2 93 93 WNW 10 17 29.74 1007 4 6 N/A
12:39 pm 12:39 Cloudy 37 3 36 2 93 93 WNW 13 20 29.77 1008 4 6 N/A
12:58 pm 12:58 Cloudy 37 3 36 2 93 93 NW 8 13 29.74 1007 4 6 N/A
1:19 pm 13:19 Cloudy 37 3 36 2 93 93 NW 8 13 29.74 1007 4 6 N/A
1:58 pm 13:58 Cloudy 39 4 37 3 93 93 NW 8 13 29.74 1007 5 8 N/A
2:19 pm 14:19 Cloudy 41 5 37 3 87 87 WNW 10 17 29.74 1007 7 11 N/A
2:39 pm 14:39 Cloudy 41 5 37 3 87 87 WNW 12 19 29.74 1007 7 11 N/A
2:58 pm 14:58 Cloudy 41 5 37 3 87 87 NW 13 20 29.77 1008 7 11 N/A
3:19 pm 15:19 Cloudy 41 5 37 3 87 87 WNW 10 17 29.77 1008 7 11 N/A
3:39 pm 15:39 Cloudy 41 5 37 3 87 87 WNW 13 20 29.80 1009 7 11 N/A
3:58 pm 15:58 Cloudy 41 5 37 3 87 87 WNW 12 19 29.80 1009 7 11 N/A
4:19 pm 16:19 Cloudy 41 5 36 2 81 81 WNW 21 33 29.80 1009 10 16 N/A
4:39 pm 16:39 Cloudy 41 5 36 2 81 81 WNW 18 30 29.83 1010 10 16 N/A
4:58 pm 16:58 Cloudy 39 4 36 2 87 87 WNW 18 30 29.85 1011 10 16 N/A
5:19 pm 17:19 Cloudy 39 4 36 2 87 87 WNW 20 31 29.85 1011 10 16 N/A
5:39 pm 17:39 Cloudy 37 3 34 1 87 87 WNW 23 37 29.88 1012 10 16 N/A
5:58 pm 17:58 Cloudy 36 2 32 undefined 87 87 WNW 29 46 29.91 1013 5 8 N/A
6:19 pm 18:19 Cloudy 34 1 32 undefined 93 93 WNW 16 26 29.97 1015 7 11 N/A
6:38 pm 18:38 Cloudy 36 2 32 undefined 87 87 WNW 14 22 29.97 1015 10 16 N/A
6:59 pm 18:59 Cloudy 36 2 32 undefined 87 87 WNW 18 30 29.97 1015 10 16 N/A
7:18 pm 19:18 Cloudy 36 2 32 undefined 87 87 WNW 13 20 29.97 1015 10 16 N/A
7:39 pm 19:39 Cloudy 36 2 32 undefined 87 87 WNW 14 22 30.00 1016 10 16 N/A
7:59 pm 19:59 Cloudy 36 2 30 -1 81 81 WNW 20 31 30.00 1016 10 16 N/A
8:18 pm 20:18 Mostly Cloudy 36 2 30 -1 81 81 WNW 14 22 30.00 1016 10 16 N/A
8:39 pm 20:39 Mostly Cloudy 36 2 30 -1 81 81 WNW 12 19 30.00 1016 10 16 N/A
8:59 pm 20:59 Partly Cloudy 34 1 30 -1 87 87 WNW 16 26 30.00 1016 10 16 N/A
9:18 pm 21:18 Clear 34 1 28 -2 81 81 WNW 13 20 30.03 1017 10 16 N/A
9:39 pm 21:39 Clear 32 undefined 28 -2 87 87 WNW 13 20 30.03 1017 10 16 N/A
9:59 pm 21:59 Clear 32 undefined 30 -1 93 93 WNW 9 15 30.03 1017 10 16 N/A
10:18 pm 22:18 Partly Cloudy 32 undefined 28 -2 87 87 W 9 15 30.06 1018 10 16 N/A
10:39 pm 22:39 Partly Cloudy 32 undefined 30 -1 93 93 W 8 13 30.06 1018 10 16 N/A
10:59 pm 22:59 Partly Cloudy 32 undefined 28 -2 87 87 W 8 13 30.06 1018 10 16 N/A
11:18 pm 23:18 Mostly Cloudy 32 undefined 30 -1 93 93 W 7 11 30.06 1018 10 16 N/A
11:39 pm 23:39 Cloudy 32 undefined 30 -1 93 93 WNW 16 26 30.06 1018 10 16 N/A
11:59 pm 23:59 Mostly Cloudy 32 undefined 28 -2 87 87 W 12 19 30.09 1019 10 16 N/A

Powered by AerisWeather